Hourly Data Report for September 15, 2017

All times are specified in Local Standard Time (LST). Add 1 hour to adjust for Daylight Saving Time where and when it is observed.

CLYDE RIVER A
NUNAVUT

70°29'09.000" N
68°31'01.000" W
26.50 m
2400804
71090
YCY

Related Data

No related data is available for this station

Download Data

Hourly Data (September 2017)
Hourly Data Report for September 15, 2017
Temp Definition
°C
Dew Point Temp Definition
°C
Rel Hum Definition
%
Wind Dir Definition
10's deg

Wind Spd Definition
km/h
Visibility Definition
km
Stn Press Definition
kPa
Hmdx Definition


Wind Chill Definition


Weather Definition


TIME
00:00 Legend Double Dagger -1.0 -2.4 90 32 41 6.4 100.35   -9 Snow
01:00 Legend Double Dagger -1.0 -3.0 86 32 46 16.1 100.28   -9 Snow
02:00 Legend Double Dagger -0.9 -3.2 85 32 41 16.1 100.32   -9 Snow
03:00 Legend Double Dagger -0.8 -3.1 85 32 37 16.1 100.36   -8 LegendNANA
04:00 Legend Double Dagger -0.8 -3.1 84 32 34 16.1 100.36   -8 Snow
05:00 Legend Double Dagger -0.7 -2.8 86 32 43 16.1 100.35   -9 LegendNANA
06:00 Legend Double Dagger -0.4 -2.9 83 33 37 16.1 100.37   -8 LegendNANA
07:00 Legend Double Dagger -0.6 -2.3 89 33 37 12.9 100.37   -8 Snow
08:00 Legend Double Dagger 0.0 -2.8 82 33 43 16.1 100.35   -8 LegendNANA
09:00 Legend Double Dagger -0.2 -2.5 85 32 39 16.1 100.35   -8 LegendNANA
10:00 Legend Double Dagger 0.0 -1.8 88 33 37 14.5 100.33   -7 Snow
11:00 Legend Double Dagger 0.0 -1.6 89 32 41 6.4 100.34   -7 Rain,Fog
12:00 Legend Double Dagger 0.0 -1.5 90 33 37 3.2 100.34   -7 Rain,Snow
13:00 Legend Double Dagger 0.4 -1.8 85 33 39 14.5 100.37     Rain
14:00 Legend Double Dagger 0.0 -1.7 89 32 34 14.5 100.43   -7 Rain
15:00 Legend Double Dagger 0.2 -2.1 85 33 30 16.1 100.47     LegendNANA
16:00 Legend Double Dagger 0.4 -2.4 81 32 26 16.1 100.48     LegendNANA
17:00 Legend Double Dagger 0.0 -2.1 86 31 24 16.1 100.48   -6 Snow
18:00 Legend Double Dagger -0.3 -2.2 87 33 24 16.1 100.49   -6 Snow
19:00 Legend Double Dagger -0.6 -1.7 92 31 21 6.4 100.49   -6 Snow
20:00 Legend Double Dagger -0.5 -1.9 90 31 21 16.1 100.48   -6 LegendNANA
21:00 Legend Double Dagger -0.6 -1.7 92 31 17 14.5 100.46   -6 Snow
22:00 Legend Double Dagger -0.7 -1.8 92 31 21 16.1 100.44   -6 Snow
23:00 Legend Double Dagger -0.5 -1.8 91 31 18 16.1 100.43   -6 Snow

Notes on Data Quality.

Legend

  • E = Estimated
  • M = Missing
  • NA = Not Available
  • ‡ = Partner data that is not subject to review by the National Climate Archives
Date modified: